| time (UTC) | temp F | wind direction | speed MPH | gust MPH | rain 1hr in | rain 24hr in | rain mn in | humidity % | barometer mb |
| 20260507155528 | 60 | 264 | 1.0 | 0.0 | 0.00 | 0.00 | 0.00 | 100 | 1006.9 |
| 20260507155042 | 60 | 350 | 2.0 | 0.0 | 0.00 | 0.00 | 0.00 | 100 | 1006.9 |
| 20260507154550 | 60 | 340 | 1.0 | 0.0 | 0.00 | 0.00 | 0.00 | 100 | 1006.9 |
| 20260507154008 | 59 | 329 | 1.0 | 0.0 | 0.00 | 0.00 | 0.00 | 100 | 1007.0 |
| 20260507153516 | 59 | 328 | 1.0 | 0.0 | 0.00 | 0.00 | 0.00 | 100 | 1007.0 |
| 20260507153031 | 58 | 336 | 0.0 | 0.0 | 0.00 | 0.00 | 0.00 | 100 | 1007.0 |
| 20260507152540 | 58 | 335 | 1.0 | 0.0 | 0.00 | 0.00 | 0.00 | 100 | 1007.0 |
| 20260507152058 | 58 | 335 | 1.0 | 0.0 | 0.00 | 0.00 | 0.00 | 100 | 1007.2 |
| 20260507151506 | 58 | 325 | 1.0 | 0.0 | 0.00 | 0.00 | 0.00 | 100 | 1007.2 |
| 20260507151019 | 58 | 303 | 1.0 | 0.0 | 0.00 | 0.00 | 0.00 | 100 | 1007.2 |
| 20260507150530 | 58 | 321 | 1.0 | 0.0 | 0.00 | 0.00 | 0.00 | 100 | 1007.2 |
| 20260507150046 | 58 | 328 | 1.0 | 0.0 | 0.00 | 0.00 | 0.00 | 100 | 1007.2 |
| 20260507145554 | 57 | 205 | 0.0 | 0.0 | 0.00 | 0.00 | 0.00 | 100 | 1007.3 |
| 20260507145009 | 57 | 321 | 0.0 | 0.0 | 0.00 | 0.00 | 0.00 | 100 | 1007.3 |
| 20260507144520 | 57 | 321 | 1.0 | 0.0 | 0.00 | 0.00 | 0.00 | 100 | 1007.3 |
| 20260507144034 | 57 | 325 | 1.0 | 0.0 | 0.00 | 0.00 | 0.00 | 100 | 1007.4 |
| 20260507143543 | 57 | 323 | 1.0 | 0.0 | 0.00 | 0.00 | 0.00 | 100 | 1007.4 |
| 20260507143110 | 57 | 323 | 1.0 | 0.0 | 0.00 | 0.00 | 0.00 | 100 | 1007.6 |
| 20260507142510 | 57 | 287 | 0.0 | 0.0 | 0.00 | 0.00 | 0.00 | 100 | 1007.7 |
| 20260507142023 | 57 | 287 | 0.0 | 0.0 | 0.00 | 0.00 | 0.00 | 100 | 1007.5 |
| 20260507141552 | 57 | 287 | 0.0 | 0.0 | 0.00 | 0.00 | 0.00 | 100 | 1007.6 |
| 20260507141051 | 57 | 286 | 0.0 | 0.0 | 0.00 | 0.00 | 0.00 | 100 | 1007.6 |
| 20260507140602 | 56 | 289 | 0.0 | 0.0 | 0.00 | 0.00 | 0.00 | 100 | 1007.6 |
| 20260507140509 | 56 | 289 | 0.0 | 0.0 | 0.00 | 0.00 | 0.00 | 100 | 1007.6 |
| 20260507140014 | 55 | 287 | 0.0 | 0.0 | 0.00 | 0.00 | 0.00 | 100 | 1007.6 |
| 20260507135530 | 55 | 287 | 0.0 | 0.0 | 0.00 | 0.00 | 0.00 | 100 | 1007.6 |
| 20260507135038 | 55 | 286 | 0.0 | 0.0 | 0.00 | 0.00 | 0.00 | 100 | 1007.7 |
| 20260507134555 | 54 | 285 | 0.0 | 0.0 | 0.00 | 0.00 | 0.00 | 100 | 1007.7 |
| 20260507134004 | 54 | 286 | 0.0 | 0.0 | 0.00 | 0.00 | 0.00 | 100 | 1007.6 |
| 20260507133518 | 54 | 285 | 0.0 | 0.0 | 0.00 | 0.00 | 0.00 | 100 | 1007.6 |
| 20260507133030 | 53 | 302 | 0.0 | 0.0 | 0.00 | 0.00 | 0.00 | 100 | 1007.8 |
| 20260507132542 | 52 | 328 | 0.0 | 0.0 | 0.00 | 0.00 | 0.00 | 96 | 1007.8 |
| 20260507132052 | 51 | 303 | 0.0 | 0.0 | 0.00 | 0.00 | 0.00 | 70 | 1007.8 |
| 20260507131510 | 50 | 303 | 0.0 | 0.0 | 0.00 | 0.00 | 0.00 | 59 | 1007.8 |
| 20260507131021 | 50 | 302 | 0.0 | 0.0 | 0.00 | 0.00 | 0.00 | 57 | 1007.9 |
| 20260507130531 | 52 | 302 | 0.0 | 0.0 | 0.00 | 0.00 | 0.00 | 57 | 1008.0 |
| 20260507130044 | 53 | 302 | 0.0 | 0.0 | 0.00 | 0.00 | 0.00 | 57 | 1007.9 |
| 20260507125556 | 54 | 302 | 0.0 | 0.0 | 0.00 | 0.00 | 0.00 | 57 | 1007.9 |
| 20260507125007 | 54 | 301 | 0.0 | 0.0 | 0.00 | 0.00 | 0.00 | 57 | 1007.9 |
| 20260507124522 | 54 | 330 | 0.0 | 0.0 | 0.00 | 0.00 | 0.00 | 57 | 1008.0 |
| 20260507124034 | 54 | 330 | 0.0 | 0.0 | 0.00 | 0.00 | 0.00 | 57 | 1008.1 |
| 20260507123546 | 54 | 330 | 0.0 | 0.0 | 0.00 | 0.00 | 0.00 | 57 | 1008.1 |
| 20260507123111 | 54 | 329 | 0.0 | 0.0 | 0.00 | 0.00 | 0.00 | 57 | 1008.1 |
| 20260507122511 | 54 | 330 | 0.0 | 0.0 | 0.00 | 0.00 | 0.00 | 57 | 1008.2 |
| 20260507122022 | 54 | 330 | 0.0 | 0.0 | 0.00 | 0.00 | 0.00 | 57 | 1008.2 |
| 20260507121542 | 53 | 330 | 0.0 | 0.0 | 0.00 | 0.00 | 0.00 | 57 | 1008.1 |
| 20260507121046 | 53 | 330 | 0.0 | 0.0 | 0.00 | 0.00 | 0.00 | 57 | 1008.0 |
| 20260507120559 | 53 | 329 | 0.0 | 0.0 | 0.00 | 0.00 | 0.00 | 57 | 1008.1 |
| 20260507120501 | 53 | 329 | 0.0 | 0.0 | 0.00 | 0.00 | 0.00 | 57 | 1008.1 |
| 20260507120018 | 53 | 329 | 0.0 | 0.0 | 0.00 | 0.00 | 0.00 | 57 | 1008.0 |
| 20260507115527 | 53 | 329 | 0.0 | 0.0 | 0.00 | 0.00 | 0.00 | 57 | 1007.9 |
| 20260507115042 | 53 | 329 | 0.0 | 0.0 | 0.00 | 0.00 | 0.00 | 57 | 1008.0 |
| 20260507114553 | 53 | 329 | 0.0 | 0.0 | 0.00 | 0.00 | 0.00 | 57 | 1008.0 |
| 20260507114004 | 53 | 329 | 0.0 | 0.0 | 0.00 | 0.00 | 0.00 | 57 | 1007.9 |
| 20260507113516 | 53 | 329 | 0.0 | 0.0 | 0.00 | 0.00 | 0.00 | 57 | 1008.0 |
| 20260507113028 | 53 | 329 | 0.0 | 0.0 | 0.00 | 0.00 | 0.00 | 57 | 1007.9 |
| 20260507112538 | 53 | 329 | 0.0 | 0.0 | 0.00 | 0.00 | 0.00 | 57 | 1007.9 |
| 20260507112052 | 53 | 329 | 0.0 | 0.0 | 0.00 | 0.00 | 0.00 | 57 | 1007.8 |
| 20260507111506 | 52 | 329 | 0.0 | 0.0 | 0.00 | 0.00 | 0.00 | 57 | 1007.8 |
| 20260507111019 | 52 | 329 | 0.0 | 0.0 | 0.00 | 0.00 | 0.00 | 57 | 1007.9 |
| 20260507110528 | 52 | 329 | 0.0 | 0.0 | 0.00 | 0.00 | 0.00 | 57 | 1007.8 |
| 20260507110044 | 52 | 329 | 0.0 | 0.0 | 0.00 | 0.00 | 0.00 | 57 | 1007.6 |
| 20260507105552 | 52 | 329 | 0.0 | 0.0 | 0.00 | 0.00 | 0.00 | 57 | 1007.6 |
| 20260507105012 | 52 | 329 | 0.0 | 0.0 | 0.00 | 0.00 | 0.00 | 57 | 1007.3 |
| 20260507104518 | 52 | 329 | 0.0 | 0.0 | 0.00 | 0.00 | 0.00 | 57 | 1007.5 |
| 20260507104032 | 52 | 329 | 0.0 | 0.0 | 0.00 | 0.00 | 0.00 | 57 | 1007.7 |
| 20260507103541 | 52 | 329 | 0.0 | 0.0 | 0.00 | 0.00 | 0.00 | 57 | 1007.8 |
| 20260507103056 | 52 | 329 | 0.0 | 0.0 | 0.00 | 0.00 | 0.00 | 57 | 1007.9 |
| 20260507102508 | 51 | 329 | 0.0 | 0.0 | 0.00 | 0.00 | 0.00 | 57 | 1007.9 |
| 20260507102022 | 51 | 329 | 0.0 | 0.0 | 0.00 | 0.00 | 0.00 | 57 | 1007.7 |
| 20260507101532 | 51 | 329 | 0.0 | 0.0 | 0.00 | 0.00 | 0.00 | 57 | 1007.3 |
| 20260507101045 | 51 | 329 | 0.0 | 0.0 | 0.00 | 0.00 | 0.00 | 57 | 1007.3 |
| 20260507100557 | 51 | 329 | 0.0 | 0.0 | 0.00 | 0.00 | 0.00 | 57 | 1007.2 |
| 20260507100506 | 51 | 329 | 0.0 | 0.0 | 0.00 | 0.00 | 0.00 | 57 | 1007.2 |
| 20260507100012 | 51 | 329 | 0.0 | 0.0 | 0.00 | 0.00 | 0.00 | 57 | 1007.3 |
| 20260507095532 | 50 | 329 | 0.0 | 0.0 | 0.00 | 0.00 | 0.00 | 57 | 1007.3 |
| 20260507095039 | 50 | 329 | 0.0 | 0.0 | 0.00 | 0.00 | 0.00 | 57 | 1007.1 |
| 20260507094553 | 50 | 329 | 0.0 | 0.0 | 0.00 | 0.00 | 0.00 | 57 | 1007.1 |
| 20260507094103 | 50 | 329 | 0.0 | 0.0 | 0.00 | 0.00 | 0.00 | 57 | 1007.0 |
| 20260507094006 | 50 | 329 | 0.0 | 0.0 | 0.00 | 0.00 | 0.00 | 57 | 1007.1 |
| 20260507093516 | 50 | 329 | 0.0 | 0.0 | 0.00 | 0.00 | 0.00 | 57 | 1007.0 |
| 20260507093026 | 50 | 329 | 0.0 | 0.0 | 0.00 | 0.00 | 0.00 | 57 | 1007.0 |
| 20260507092540 | 49 | 329 | 0.0 | 0.0 | 0.00 | 0.00 | 0.00 | 57 | 1007.1 |
| 20260507092049 | 49 | 329 | 0.0 | 0.0 | 0.00 | 0.00 | 0.00 | 57 | 1007.0 |
| 20260507091511 | 49 | 329 | 0.0 | 0.0 | 0.00 | 0.00 | 0.00 | 57 | 1007.0 |
| 20260507091018 | 49 | 329 | 0.0 | 0.0 | 0.00 | 0.00 | 0.00 | 57 | 1007.1 |
| 20260507090529 | 49 | 329 | 0.0 | 0.0 | 0.00 | 0.00 | 0.00 | 57 | 1007.1 |
| 20260507090049 | 48 | 329 | 0.0 | 0.0 | 0.00 | 0.00 | 0.00 | 57 | 1007.3 |
| 20260507085554 | 48 | 329 | 0.0 | 0.0 | 0.00 | 0.00 | 0.00 | 57 | 1007.3 |
| 20260507085006 | 48 | 329 | 0.0 | 0.0 | 0.00 | 0.00 | 0.00 | 57 | 1007.4 |
| 20260507084520 | 48 | 329 | 0.0 | 0.0 | 0.00 | 0.00 | 0.00 | 57 | 1007.3 |
| 20260507084030 | 48 | 329 | 0.0 | 0.0 | 0.00 | 0.00 | 0.00 | 57 | 1007.4 |
| 20260507083544 | 48 | 329 | 0.0 | 0.0 | 0.00 | 0.00 | 0.00 | 57 | 1007.3 |
| 20260507083057 | 48 | 329 | 0.0 | 0.0 | 0.00 | 0.00 | 0.00 | 57 | 1007.2 |
| 20260507082512 | 48 | 329 | 0.0 | 0.0 | 0.00 | 0.00 | 0.00 | 57 | 1007.1 |
| 20260507082020 | 48 | 329 | 0.0 | 0.0 | 0.00 | 0.00 | 0.00 | 57 | 1007.1 |
| 20260507081534 | 48 | 329 | 0.0 | 0.0 | 0.00 | 0.00 | 0.00 | 57 | 1007.0 |
| 20260507081042 | 48 | 329 | 0.0 | 0.0 | 0.00 | 0.00 | 0.00 | 57 | 1006.8 |
| 20260507080556 | 48 | 329 | 0.0 | 0.0 | 0.00 | 0.00 | 0.00 | 57 | 1006.8 |
| 20260507080015 | 49 | 329 | 0.0 | 0.0 | 0.00 | 0.00 | 0.00 | 57 | 1007.0 |
| 20260507075522 | 49 | 329 | 0.0 | 0.0 | 0.00 | 0.00 | 0.00 | 57 | 1007.2 |
| 20260507075040 | 49 | 329 | 0.0 | 0.0 | 0.00 | 0.00 | 0.00 | 57 | 1006.9 |
| 20260507074547 | 50 | 329 | 0.0 | 0.0 | 0.00 | 0.00 | 0.00 | 59 | 1006.9 |
| 20260507074002 | 50 | 329 | 0.0 | 0.0 | 0.00 | 0.00 | 0.00 | 74 | 1006.7 |
| 20260507073512 | 51 | 329 | 0.0 | 0.0 | 0.00 | 0.00 | 0.00 | 84 | 1006.8 |
| 20260507073030 | 52 | 329 | 1.0 | 0.0 | 0.00 | 0.00 | 0.00 | 94 | 1006.8 |
| 20260507072536 | 52 | 320 | 1.0 | 0.0 | 0.00 | 0.00 | 0.00 | 98 | 1006.8 |
| 20260507072050 | 52 | 318 | 0.0 | 0.0 | 0.00 | 0.00 | 0.00 | 95 | 1006.5 |
| 20260507071605 | 52 | 317 | 0.0 | 0.0 | 0.00 | 0.00 | 0.00 | 94 | 1006.3 |
| 20260507071502 | 52 | 317 | 0.0 | 0.0 | 0.00 | 0.00 | 0.00 | 94 | 1006.2 |
| 20260507071020 | 52 | 317 | 0.0 | 0.0 | 0.00 | 0.00 | 0.00 | 95 | 1006.1 |
| 20260507070526 | 53 | 317 | 0.0 | 0.0 | 0.00 | 0.00 | 0.00 | 95 | 1005.9 |
| 20260507070044 | 53 | 316 | 0.0 | 0.0 | 0.00 | 0.00 | 0.00 | 91 | 1006.0 |
| 20260507065554 | 53 | 316 | 0.0 | 0.0 | 0.00 | 0.00 | 0.00 | 93 | 1006.0 |
| 20260507065006 | 53 | 316 | 0.0 | 0.0 | 0.00 | 0.00 | 0.00 | 94 | 1006.0 |
| 20260507064526 | 53 | 314 | 0.0 | 0.0 | 0.00 | 0.00 | 0.00 | 93 | 1006.1 |
| 20260507064030 | 53 | 314 | 1.0 | 0.0 | 0.00 | 0.00 | 0.00 | 90 | 1006.0 |
| 20260507063541 | 53 | 314 | 1.0 | 0.0 | 0.00 | 0.00 | 0.00 | 90 | 1006.2 |
| 20260507063107 | 53 | 340 | 1.0 | 0.0 | 0.00 | 0.00 | 0.00 | 77 | 1006.4 |
| 20260507062512 | 53 | 327 | 0.0 | 0.0 | 0.00 | 0.00 | 0.00 | 67 | 1006.3 |
| 20260507062020 | 53 | 271 | 0.0 | 0.0 | 0.00 | 0.00 | 0.00 | 62 | 1006.2 |
| 20260507061532 | 53 | 271 | 0.0 | 0.0 | 0.00 | 0.00 | 0.00 | 60 | 1006.1 |
| 20260507061044 | 53 | 254 | 0.0 | 0.0 | 0.00 | 0.00 | 0.00 | 59 | 1006.0 |
| 20260507060555 | 53 | 254 | 0.0 | 0.0 | 0.00 | 0.00 | 0.00 | 61 | 1005.9 |
| 20260507060503 | 53 | 16 | 0.0 | 0.0 | 0.00 | 0.00 | 0.00 | 61 | 1005.9 |
| 20260507060013 | 53 | 17 | 0.0 | 0.0 | 0.00 | 0.00 | 0.00 | 57 | 1006.0 |
| 20260507055527 | 53 | 17 | 0.0 | 0.0 | 0.00 | 0.00 | 0.00 | 57 | 1006.2 |
| 20260507055035 | 53 | 17 | 0.0 | 0.0 | 0.00 | 0.00 | 0.00 | 57 | 1006.2 |
| 20260507054559 | 53 | 17 | 0.0 | 0.0 | 0.00 | 0.00 | 0.00 | 57 | 1006.3 |
| 20260507054058 | 54 | 19 | 0.0 | 0.0 | 0.00 | 0.00 | 0.00 | 57 | 1006.2 |
| 20260507053514 | 54 | 19 | 0.0 | 0.0 | 0.00 | 0.00 | 0.00 | 57 | 1006.4 |
| 20260507053024 | 54 | 19 | 0.0 | 0.0 | 0.00 | 0.00 | 0.00 | 57 | 1006.6 |
| 20260507052538 | 54 | 19 | 1.0 | 0.0 | 0.00 | 0.00 | 0.00 | 57 | 1006.5 |
| 20260507052051 | 54 | 20 | 0.0 | 0.0 | 0.00 | 0.00 | 0.00 | 57 | 1006.3 |
| 20260507051504 | 55 | 21 | 0.0 | 0.0 | 0.00 | 0.00 | 0.00 | 57 | 1006.4 |
| 20260507051013 | 55 | 21 | 0.0 | 0.0 | 0.00 | 0.00 | 0.00 | 57 | 1006.3 |
| 20260507050531 | 55 | 21 | 1.0 | 0.0 | 0.00 | 0.00 | 0.00 | 57 | 1006.1 |
| 20260507050044 | 56 | 23 | 1.0 | 0.0 | 0.00 | 0.00 | 0.00 | 57 | 1006.2 |
| 20260507045552 | 58 | 306 | 1.0 | 0.0 | 0.00 | 0.00 | 0.00 | 57 | 1006.1 |
| 20260507045005 | 60 | 340 | 1.0 | 0.0 | 0.00 | 0.00 | 0.00 | 57 | 1006.2 |
| 20260507044518 | 60 | 340 | 1.0 | 0.0 | 0.00 | 0.00 | 0.00 | 57 | 1006.3 |
| 20260507044028 | 61 | 294 | 0.0 | 0.0 | 0.00 | 0.00 | 0.00 | 57 | 1006.3 |
| 20260507043542 | 62 | 294 | 0.0 | 0.0 | 0.00 | 0.00 | 0.00 | 57 | 1006.2 |
| 20260507043055 | 62 | 294 | 0.0 | 0.0 | 0.00 | 0.00 | 0.00 | 57 | 1006.1 |
| 20260507042509 | 63 | 294 | 0.0 | 0.0 | 0.00 | 0.00 | 0.00 | 57 | 1006.0 |
| 20260507042018 | 63 | 294 | 0.0 | 0.0 | 0.00 | 0.00 | 0.00 | 57 | 1006.0 |
| 20260507041532 | 63 | 294 | 0.0 | 0.0 | 0.00 | 0.00 | 0.00 | 57 | 1006.0 |
| 20260507041038 | 63 | 294 | 0.0 | 0.0 | 0.00 | 0.00 | 0.00 | 57 | 1006.0 |
| 20260507040552 | 63 | 261 | 0.0 | 0.0 | 0.00 | 0.00 | 0.00 | 57 | 1006.0 |
| 20260507040011 | 63 | 261 | 0.0 | 0.0 | 0.00 | 0.00 | 0.00 | 57 | 1006.2 |
| 20260507035512 | 63 | 261 | 0.0 | 0.0 | 0.00 | 0.00 | 0.00 | 57 | 1006.4 |
| 20260507035024 | 63 | 261 | 0.0 | 0.0 | 0.00 | 0.00 | 0.00 | 57 | 1006.4 |
| 20260507034535 | 63 | 261 | 0.0 | 0.0 | 0.00 | 0.00 | 0.00 | 57 | 1006.4 |
| 20260507034048 | 63 | 261 | 0.0 | 0.0 | 0.00 | 0.00 | 0.00 | 57 | 1006.3 |
| 20260507033558 | 63 | 261 | 0.0 | 0.0 | 0.00 | 0.00 | 0.00 | 57 | 1006.2 |
| 20260507033014 | 63 | 261 | 0.0 | 0.0 | 0.00 | 0.00 | 0.00 | 57 | 1006.0 |
| 20260507032524 | 63 | 261 | 0.0 | 0.0 | 0.00 | 0.00 | 0.00 | 57 | 1006.0 |
| 20260507032041 | 63 | 261 | 0.0 | 0.0 | 0.00 | 0.00 | 0.00 | 57 | 1006.0 |
| 20260507031548 | 63 | 261 | 0.0 | 0.0 | 0.00 | 0.00 | 0.00 | 57 | 1006.0 |
| 20260507031005 | 63 | 261 | 0.0 | 0.0 | 0.00 | 0.00 | 0.00 | 57 | 1005.8 |
| 20260507030519 | 63 | 261 | 0.0 | 0.0 | 0.00 | 0.00 | 0.00 | 57 | 1005.7 |
| 20260507030030 | 63 | 225 | 0.0 | 0.0 | 0.00 | 0.00 | 0.00 | 57 | 1005.7 |
| 20260507025543 | 63 | 225 | 0.0 | 0.0 | 0.00 | 0.00 | 0.00 | 57 | 1005.7 |
| 20260507025053 | 63 | 225 | 0.0 | 0.0 | 0.00 | 0.00 | 0.00 | 57 | 1005.7 |
| 20260507024514 | 63 | 225 | 0.0 | 0.0 | 0.00 | 0.00 | 0.00 | 57 | 1005.6 |
| 20260507024018 | 63 | 227 | 0.0 | 0.0 | 0.00 | 0.00 | 0.00 | 57 | 1005.6 |
| 20260507023532 | 63 | 266 | 0.0 | 0.0 | 0.00 | 0.00 | 0.00 | 57 | 1005.7 |
| 20260507023044 | 63 | 266 | 0.0 | 0.0 | 0.00 | 0.00 | 0.00 | 57 | 1005.8 |
| 20260507022557 | 63 | 266 | 0.0 | 0.0 | 0.00 | 0.00 | 0.00 | 57 | 1005.9 |
| 20260507022009 | 62 | 127 | 0.0 | 0.0 | 0.00 | 0.00 | 0.00 | 57 | 1005.7 |
| 20260507021522 | 62 | 192 | 0.0 | 0.0 | 0.00 | 0.00 | 0.00 | 57 | 1005.6 |
| 20260507021032 | 62 | 192 | 0.0 | 0.0 | 0.00 | 0.00 | 0.00 | 57 | 1005.7 |
| 20260507020546 | 62 | 142 | 0.0 | 0.0 | 0.00 | 0.00 | 0.00 | 57 | 1005.7 |
| 20260507020115 | 62 | 219 | 0.0 | 0.0 | 0.00 | 0.00 | 0.00 | 57 | 1005.8 |
| 20260507015516 | 62 | 219 | 0.0 | 0.0 | 0.00 | 0.00 | 0.00 | 57 | 1005.8 |
| 20260507015025 | 62 | 227 | 0.0 | 0.0 | 0.00 | 0.00 | 0.00 | 57 | 1005.8 |
| 20260507014543 | 62 | 245 | 0.0 | 0.0 | 0.00 | 0.00 | 0.00 | 57 | 1005.6 |
| 20260507014046 | 62 | 253 | 0.0 | 0.0 | 0.00 | 0.00 | 0.00 | 57 | 1005.7 |
| 20260507013502 | 62 | 242 | 0.0 | 0.0 | 0.00 | 0.00 | 0.00 | 57 | 1005.7 |
| 20260507013014 | 62 | 186 | 0.0 | 0.0 | 0.00 | 0.00 | 0.00 | 57 | 1005.8 |
| 20260507012526 | 62 | 160 | 0.0 | 0.0 | 0.00 | 0.00 | 0.00 | 57 | 1005.9 |
| 20260507012037 | 62 | 160 | 0.0 | 0.0 | 0.00 | 0.00 | 0.00 | 57 | 1006.0 |
| 20260507011551 | 62 | 140 | 0.0 | 0.0 | 0.00 | 0.00 | 0.00 | 57 | 1006.0 |
| 20260507011102 | 62 | 233 | 1.0 | 0.0 | 0.00 | 0.00 | 0.00 | 57 | 1006.1 |
| 20260507011007 | 62 | 233 | 1.0 | 0.0 | 0.00 | 0.00 | 0.00 | 57 | 1006.1 |
| 20260507010516 | 62 | 233 | 1.0 | 0.0 | 0.00 | 0.00 | 0.00 | 57 | 1006.2 |
| 20260507010048 | 62 | 187 | 1.0 | 0.0 | 0.00 | 0.00 | 0.00 | 57 | 1006.0 |
| 20260507005541 | 62 | 133 | 1.0 | 0.0 | 0.00 | 0.00 | 0.00 | 57 | 1006.1 |
| 20260507005055 | 62 | 150 | 1.0 | 0.0 | 0.00 | 0.00 | 0.00 | 57 | 1006.1 |
| 20260507004506 | 62 | 113 | 0.0 | 0.0 | 0.00 | 0.00 | 0.00 | 57 | 1006.1 |
| 20260507004020 | 62 | 192 | 0.0 | 0.0 | 0.00 | 0.00 | 0.00 | 57 | 1006.2 |
| 20260507003532 | 62 | 184 | 0.0 | 0.0 | 0.00 | 0.00 | 0.00 | 57 | 1006.1 |
| 20260507003044 | 62 | 191 | 0.0 | 0.0 | 0.00 | 0.00 | 0.00 | 57 | 1005.9 |
| 20260507002555 | 62 | 191 | 0.0 | 0.0 | 0.00 | 0.00 | 0.00 | 57 | 1006.0 |
| 20260507002014 | 62 | 142 | 0.0 | 0.0 | 0.00 | 0.00 | 0.00 | 57 | 1006.0 |
| 20260507001520 | 62 | 141 | 1.0 | 0.0 | 0.00 | 0.00 | 0.00 | 57 | 1005.9 |
| 20260507001034 | 62 | 172 | 1.0 | 0.0 | 0.00 | 0.00 | 0.00 | 57 | 1005.8 |
| 20260507000546 | 62 | 231 | 0.0 | 0.0 | 0.00 | 0.00 | 0.00 | 57 | 1005.8 |
| 20260507000058 | 62 | 202 | 0.0 | 0.0 | 0.00 | 0.00 | 0.00 | 57 | 1005.8 |
| 20260506235511 | 62 | 187 | 0.0 | 0.0 | 0.00 | 0.00 | 0.00 | 57 | 1005.6 |
| 20260506235024 | 62 | 187 | 0.0 | 0.0 | 0.00 | 0.00 | 0.00 | 57 | 1005.8 |
| 20260506234534 | 62 | 216 | 0.0 | 0.0 | 0.00 | 0.00 | 0.00 | 57 | 1005.7 |
| 20260506234048 | 62 | 216 | 0.0 | 0.0 | 0.00 | 0.00 | 0.00 | 57 | 1005.7 |
| 20260506233558 | 62 | 187 | 0.0 | 0.0 | 0.00 | 0.00 | 0.00 | 57 | 1005.7 |
| 20260506233015 | 62 | 220 | 0.0 | 0.0 | 0.00 | 0.00 | 0.00 | 57 | 1005.7 |
| 20260506232526 | 62 | 210 | 0.0 | 0.0 | 0.00 | 0.00 | 0.00 | 57 | 1005.6 |
| 20260506232038 | 62 | 154 | 1.0 | 0.0 | 0.00 | 0.00 | 0.00 | 57 | 1005.6 |
| 20260506231605 | 62 | 226 | 1.0 | 0.0 | 0.00 | 0.00 | 0.00 | 57 | 1005.7 |
| 20260506231010 | 62 | 191 | 1.0 | 0.0 | 0.00 | 0.00 | 0.00 | 57 | 1005.7 |
| 20260506230508 | 62 | 120 | 0.0 | 0.0 | 0.00 | 0.00 | 0.00 | 57 | 1005.7 |
| 20260506230019 | 62 | 116 | 0.0 | 0.0 | 0.00 | 0.00 | 0.00 | 57 | 1005.8 |
| 20260506225527 | 62 | 245 | 0.0 | 0.0 | 0.00 | 0.00 | 0.00 | 57 | 1005.7 |
| 20260506225036 | 62 | 142 | 0.0 | 0.0 | 0.00 | 0.00 | 0.00 | 57 | 1005.7 |
| 20260506224552 | 62 | 139 | 1.0 | 0.0 | 0.00 | 0.00 | 0.00 | 57 | 1005.6 |
| 20260506224002 | 63 | 284 | 1.0 | 0.0 | 0.00 | 0.00 | 0.00 | 57 | 1005.8 |
| 20260506223517 | 63 | 120 | 0.0 | 0.0 | 0.00 | 0.00 | 0.00 | 57 | 1005.8 |
| 20260506223026 | 63 | 170 | 0.0 | 0.0 | 0.00 | 0.00 | 0.00 | 57 | 1005.9 |
| 20260506222540 | 63 | 204 | 1.0 | 0.0 | 0.00 | 0.00 | 0.00 | 57 | 1005.8 |
| 20260506222054 | 63 | 166 | 1.0 | 0.0 | 0.00 | 0.00 | 0.00 | 57 | 1005.9 |
| 20260506221506 | 62 | 149 | 0.0 | 0.0 | 0.00 | 0.00 | 0.00 | 57 | 1006.0 |
| 20260506221016 | 62 | 165 | 0.0 | 0.0 | 0.00 | 0.00 | 0.00 | 57 | 1006.1 |
| 20260506220530 | 62 | 170 | 0.0 | 0.0 | 0.00 | 0.00 | 0.00 | 57 | 1006.1 |
| 20260506220050 | 62 | 243 | 0.0 | 0.0 | 0.00 | 0.00 | 0.00 | 57 | 1006.2 |
| 20260506215554 | 62 | 175 | 0.0 | 0.0 | 0.00 | 0.00 | 0.00 | 57 | 1006.1 |
| 20260506215006 | 62 | 158 | 0.0 | 0.0 | 0.00 | 0.00 | 0.00 | 57 | 1006.1 |
| 20260506214520 | 62 | 177 | 0.0 | 0.0 | 0.00 | 0.00 | 0.00 | 57 | 1006.1 |
| 20260506214029 | 61 | 208 | 1.0 | 0.0 | 0.00 | 0.00 | 0.00 | 57 | 1006.2 |
| 20260506213544 | 61 | 151 | 1.0 | 0.0 | 0.00 | 0.00 | 0.00 | 57 | 1006.4 |
| 20260506213109 | 61 | 208 | 0.0 | 0.0 | 0.00 | 0.00 | 0.00 | 57 | 1006.3 |
| 20260506212510 | 60 | 200 | 1.0 | 0.0 | 0.00 | 0.00 | 0.00 | 57 | 1006.5 |
| 20260506212025 | 60 | 207 | 1.0 | 0.0 | 0.00 | 0.00 | 0.00 | 57 | 1006.5 |
| 20260506211535 | 60 | 258 | 1.0 | 0.0 | 0.00 | 0.00 | 0.00 | 57 | 1006.4 |
| 20260506211040 | 60 | 223 | 1.0 | 0.0 | 0.00 | 0.00 | 0.00 | 57 | 1006.4 |
| 20260506210554 | 60 | 216 | 1.0 | 0.0 | 0.00 | 0.00 | 0.00 | 57 | 1006.4 |
| 20260506210012 | 60 | 204 | 1.0 | 0.0 | 0.00 | 0.00 | 0.00 | 57 | 1006.4 |
| 20260506205520 | 60 | 187 | 1.0 | 0.0 | 0.00 | 0.00 | 0.00 | 57 | 1006.6 |
| 20260506205035 | 60 | 191 | 1.0 | 0.0 | 0.00 | 0.00 | 0.00 | 57 | 1006.5 |
| 20260506204544 | 60 | 152 | 1.0 | 0.0 | 0.00 | 0.00 | 0.00 | 57 | 1006.5 |
| 20260506204100 | 60 | 250 | 1.0 | 0.0 | 0.00 | 0.00 | 0.00 | 57 | 1006.6 |
| 20260506203510 | 59 | 257 | 1.0 | 0.0 | 0.00 | 0.00 | 0.00 | 57 | 1006.8 |
| 20260506203024 | 59 | 184 | 1.0 | 0.0 | 0.00 | 0.00 | 0.00 | 57 | 1006.8 |
| 20260506202534 | 59 | 159 | 1.0 | 0.0 | 0.00 | 0.00 | 0.00 | 57 | 1006.7 |
| 20260506202049 | 59 | 204 | 1.0 | 0.0 | 0.00 | 0.00 | 0.00 | 57 | 1006.8 |
| 20260506201558 | 59 | 238 | 1.0 | 0.0 | 0.00 | 0.00 | 0.00 | 57 | 1006.8 |
| 20260506201503 | 59 | 238 | 1.0 | 0.0 | 0.00 | 0.00 | 0.00 | 57 | 1006.7 |
| 20260506201014 | 59 | 289 | 1.0 | 0.0 | 0.00 | 0.00 | 0.00 | 57 | 1006.6 |
| 20260506200524 | 59 | 230 | 1.0 | 0.0 | 0.00 | 0.00 | 0.00 | 57 | 1006.6 |
| 20260506200039 | 60 | 175 | 0.0 | 0.0 | 0.00 | 0.00 | 0.00 | 57 | 1006.6 |
| 20260506195556 | 60 | 270 | 0.0 | 0.0 | 0.00 | 0.00 | 0.00 | 57 | 1006.5 |
| 20260506195004 | 60 | 271 | 1.0 | 0.0 | 0.00 | 0.00 | 0.00 | 57 | 1006.5 |
| 20260506194515 | 60 | 185 | 1.0 | 0.0 | 0.00 | 0.00 | 0.00 | 61 | 1006.5 |
| 20260506194031 | 60 | 185 | 1.0 | 0.0 | 0.00 | 0.00 | 0.00 | 63 | 1006.5 |
| 20260506193538 | 61 | 189 | 1.0 | 0.0 | 0.00 | 0.00 | 0.00 | 73 | 1006.8 |
| 20260506193052 | 61 | 141 | 1.0 | 0.0 | 0.00 | 0.00 | 0.00 | 81 | 1006.9 |
| 20260506192504 | 62 | 167 | 0.0 | 0.0 | 0.00 | 0.00 | 0.00 | 83 | 1006.8 |
| 20260506192015 | 63 | 232 | 0.0 | 0.0 | 0.00 | 0.00 | 0.00 | 91 | 1006.9 |
| 20260506191520 | 64 | 231 | 1.0 | 0.0 | 0.00 | 0.00 | 0.00 | 100 | 1006.9 |
| 20260506191035 | 65 | 239 | 1.0 | 0.0 | 0.00 | 0.00 | 0.00 | 100 | 1006.7 |
| 20260506190547 | 66 | 248 | 1.0 | 0.0 | 0.00 | 0.00 | 0.00 | 100 | 1006.7 |
| 20260506190059 | 67 | 214 | 1.0 | 0.0 | 0.00 | 0.00 | 0.00 | 100 | 1006.8 |
| 20260506185515 | 68 | 253 | 1.0 | 0.0 | 0.00 | 0.00 | 0.00 | 100 | 1006.7 |
| 20260506185024 | 68 | 181 | 1.0 | 0.0 | 0.00 | 0.00 | 0.00 | 100 | 1006.8 |
| 20260506184542 | 68 | 264 | 1.0 | 0.0 | 0.00 | 0.00 | 0.00 | 100 | 1006.8 |
| 20260506184049 | 68 | 168 | 1.0 | 0.0 | 0.00 | 0.00 | 0.00 | 100 | 1006.8 |
| 20260506183505 | 69 | 246 | 2.0 | 0.0 | 0.00 | 0.00 | 0.00 | 100 | 1006.9 |
| 20260506183014 | 69 | 152 | 2.0 | 0.0 | 0.00 | 0.00 | 0.00 | 100 | 1007.0 |
| 20260506182530 | 70 | 262 | 2.0 | 0.0 | 0.00 | 0.00 | 0.00 | 100 | 1006.9 |
| 20260506182038 | 70 | 297 | 2.0 | 0.0 | 0.00 | 0.00 | 0.00 | 100 | 1007.0 |
| 20260506181552 | 70 | 204 | 1.0 | 0.0 | 0.00 | 0.00 | 0.00 | 100 | 1007.0 |
| 20260506181006 | 71 | 194 | 2.0 | 0.0 | 0.00 | 0.00 | 0.00 | 100 | 1007.0 |
| 20260506180519 | 71 | 192 | 2.0 | 0.0 | 0.00 | 0.00 | 0.00 | 100 | 1007.0 |
| 20260506180032 | 71 | 222 | 1.0 | 0.0 | 0.00 | 0.00 | 0.00 | 100 | 1007.0 |
| 20260506175542 | 71 | 295 | 1.0 | 0.0 | 0.00 | 0.00 | 0.00 | 100 | 1007.1 |
| 20260506175052 | 71 | 203 | 2.0 | 0.0 | 0.00 | 0.00 | 0.00 | 100 | 1007.1 |
| 20260506174521 | 72 | 256 | 2.0 | 0.0 | 0.00 | 0.00 | 0.00 | 100 | 1007.0 |
| 20260506174019 | 72 | 204 | 2.0 | 0.0 | 0.00 | 0.00 | 0.00 | 100 | 1007.3 |
| 20260506173533 | 72 | 269 | 2.0 | 0.0 | 0.00 | 0.00 | 0.00 | 100 | 1007.1 |
| 20260506173047 | 72 | 196 | 3.0 | 0.0 | 0.00 | 0.00 | 0.00 | 100 | 1007.2 |
| 20260506172557 | 72 | 271 | 2.0 | 0.0 | 0.00 | 0.00 | 0.00 | 100 | 1007.3 |
| 20260506172009 | 72 | 144 | 2.0 | 0.0 | 0.00 | 0.00 | 0.00 | 100 | 1007.4 |
| 20260506171534 | 72 | 183 | 2.0 | 0.0 | 0.00 | 0.00 | 0.00 | 100 | 1007.3 |
| 20260506171034 | 73 | 171 | 1.0 | 0.0 | 0.00 | 0.00 | 0.00 | 100 | 1007.3 |
| 20260506170547 | 73 | 177 | 1.0 | 0.0 | 0.00 | 0.00 | 0.00 | 100 | 1007.1 |
| 20260506170058 | 72 | 175 | 2.0 | 0.0 | 0.00 | 0.00 | 0.00 | 100 | 1007.2 |
| 20260506170004 | 72 | 158 | 2.0 | 0.0 | 0.00 | 0.00 | 0.00 | 100 | 1007.2 |
| 20260506165512 | 72 | 213 | 2.0 | 0.0 | 0.00 | 0.00 | 0.00 | 100 | 1007.3 |
| 20260506165028 | 72 | 198 | 2.0 | 0.0 | 0.00 | 0.00 | 0.00 | 100 | 1007.4 |
| 20260506164537 | 72 | 133 | 2.0 | 0.0 | 0.00 | 0.00 | 0.00 | 100 | 1007.5 |
| 20260506164053 | 72 | 190 | 1.0 | 0.0 | 0.00 | 0.00 | 0.00 | 100 | 1007.7 |
| 20260506163503 | 72 | 252 | 2.0 | 0.0 | 0.00 | 0.00 | 0.00 | 100 | 1007.6 |
| 20260506163017 | 72 | 264 | 2.0 | 0.0 | 0.00 | 0.00 | 0.00 | 100 | 1007.7 |
| 20260506162530 | 72 | 172 | 1.0 | 0.0 | 0.00 | 0.00 | 0.00 | 100 | 1007.6 |
| 20260506162040 | 72 | 173 | 1.0 | 0.0 | 0.00 | 0.00 | 0.00 | 100 | 1007.7 |
| 20260506161551 | 72 | 265 | 1.0 | 0.0 | 0.00 | 0.00 | 0.00 | 100 | 1007.8 |
| 20260506161007 | 72 | 254 | 1.0 | 0.0 | 0.00 | 0.00 | 0.00 | 100 | 1008.1 |
| 20260506160517 | 72 | 164 | 1.0 | 0.0 | 0.00 | 0.00 | 0.00 | 100 | 1008.1 |
| 20260506160031 | 72 | 202 | 1.0 | 0.0 | 0.00 | 0.00 | 0.00 | 100 | 1008.1 |